Theta_e
304 304 303 303 303 303 305 306 306 306 306 305 304 304 304 303 303 304 304 304 304 305 306 306 306 306 306 305 306 306 306 306 306 306 307 307 307 307 307 308 308 308 309 312 313 313 312 311 311 310 311 312 312 313 313 313 314 313 314 314 313 314 315 315 315 316 315 316 317 317 317 315 317 323 327 327 322 325 331 335 339 338 337 341 344 345 344 345
303 303 303 304 305 307 308 309 308 307 306 305 304 304 304 303 303 303 304 304 305 305 305 306 305 306 306 306 306 306 306 306 307 308 309 309 307 307 307 307 307 308 310 312 313 312 311 310 311 310 311 312 312 312 313 313 313 313 314 314 314 315 315 315 315 315 316 316 316 317 317 315 318 325 329 327 323 327 331 334 339 339 339 342 344 344 344 344
304 306 307 308 309 310 310 310 309 308 306 305 304 304 304 303 303 303 304 305 305 305 305 305 306 306 306 306 306 306 307 309 312 312 312 311 310 307 306 307 307 309 312 313 312 311 310 310 310 310 311 313 312 312 313 313 313 314 314 314 314 315 315 316 315 315 315 316 316 317 316 316 321 326 328 328 327 329 329 333 337 338 340 342 343 343 343 343
309 310 311 311 311 311 310 309 308 308 307 306 304 304 304 304 303 303 303 304 305 305 305 305 305 306 306 305 305 306 309 314 315 314 312 311 309 308 307 306 308 312 313 312 311 309 309 310 310 311 311 313 313 312 313 313 313 314 313 313 314 315 314 314 315 315 315 315 315 316 315 317 322 325 327 329 328 327 327 332 335 337 340 342 342 342 343 343
311 311 311 311 311 311 310 309 308 307 306 305 304 303 304 304 304 303 303 303 304 304 305 305 305 305 305 305 305 306 310 316 315 313 312 310 308 307 307 306 309 313 313 311 310 309 309 310 310 310 312 313 313 312 313 313 312 313 313 314 315 314 313 314 315 314 314 314 314 316 315 316 320 323 328 329 328 326 329 334 335 337 340 340 342 342 343 342
311 310 311 311 311 311 310 310 310 309 306 305 304 304 304 304 304 304 303 303 303 303 304 304 304 305 304 304 305 307 312 316 314 313 313 311 309 308 307 306 310 313 312 311 310 309 309 310 310 311 312 313 312 312 313 313 312 312 313 314 315 314 314 314 315 314 314 314 315 315 315 314 316 322 327 329 328 327 330 333 335 340 341 341 342 341 342 342
311 311 311 312 312 312 312 312 312 311 309 306 304 304 304 303 304 304 304 304 303 303 303 303 304 304 304 305 309 311 314 315 313 313 314 312 310 309 307 307 311 313 312 311 310 309 310 310 311 312 312 312 312 312 312 312 312 312 313 314 313 314 314 314 314 314 314 314 315 314 315 315 315 321 327 329 328 327 328 331 337 341 341 341 341 341 341 341
312 312 311 311 312 312 313 313 313 313 312 310 307 303 303 304 304 304 304 304 304 303 303 303 303 304 304 307 312 315 315 314 311 312 314 312 311 310 309 310 311 312 312 312 310 309 310 311 312 311 312 312 312 312 312 312 312 312 312 314 314 314 314 314 314 315 315 315 314 314 315 315 316 321 326 329 328 327 330 333 338 340 339 341 341 341 341 341
312 313 312 311 312 312 313 313 312 312 313 314 312 306 303 304 304 304 305 304 305 304 303 303 303 304 306 309 313 316 314 311 310 312 314 312 312 311 311 311 311 312 312 312 310 310 311 312 313 312 313 313 312 313 313 312 312 313 313 314 314 314 315 315 315 315 315 314 314 315 316 317 317 320 324 328 328 329 332 336 338 338 338 341 340 340 340 340
313 313 313 312 312 312 312 311 311 311 311 313 315 312 305 304 305 305 305 304 304 305 304 304 304 305 308 310 314 316 312 308 310 313 314 311 312 312 312 312 312 312 312 311 310 311 312 313 313 313 313 313 313 313 314 313 314 314 314 315 315 315 315 314 314 314 314 314 314 315 317 317 318 319 323 327 329 329 333 337 339 338 340 341 340 339 339 339
313 314 314 313 312 312 311 311 311 311 311 312 316 316 310 305 305 305 305 304 305 305 304 304 305 307 308 310 315 316 311 309 308 310 310 309 311 312 312 313 312 313 312 311 310 311 313 313 313 313 314 313 313 314 314 313 314 314 314 315 315 315 315 314 315 314 315 315 314 316 317 318 318 319 321 324 328 330 331 336 338 339 341 341 340 339 339 338
310 312 314 313 312 312 312 311 310 310 310 311 314 318 314 307 305 305 305 305 305 304 304 304 305 307 309 312 315 314 311 311 309 308 308 308 309 311 311 311 312 313 312 311 310 311 311 312 312 314 314 313 313 314 313 314 313 314 314 314 314 315 315 315 315 315 315 315 314 316 316 316 318 317 320 323 327 330 330 333 336 338 341 340 340 339 339 339
307 309 311 313 312 312 311 310 309 309 310 312 313 317 316 310 306 306 305 305 305 305 304 305 307 308 312 315 314 313 312 312 311 310 309 308 309 308 308 308 309 310 310 310 311 311 311 311 311 313 313 314 314 313 313 314 314 314 314 314 314 314 314 315 315 315 316 314 313 315 314 315 317 317 321 323 326 329 330 332 333 337 340 340 339 338 338 338
305 307 308 310 311 311 311 309 309 308 310 312 313 315 315 312 310 309 307 306 305 306 306 307 309 310 315 317 314 313 314 313 312 312 311 311 309 309 308 308 309 310 310 311 311 311 311 310 311 312 313 314 315 314 313 314 314 314 314 314 314 313 313 316 316 316 315 314 314 315 313 315 316 316 321 324 325 328 329 330 332 335 338 338 338 337 336 336
304 305 306 307 309 310 310 309 308 308 309 312 314 314 314 314 313 312 311 309 308 308 307 307 309 312 316 316 313 314 314 314 314 313 312 310 310 310 310 310 310 311 311 311 311 310 310 311 312 314 314 313 313 314 314 314 314 315 313 312 314 313 313 316 317 317 316 315 316 315 314 315 316 316 321 323 324 326 327 329 332 334 336 337 337 335 334 334
304 304 304 305 306 308 308 308 308 308 310 313 313 314 314 313 313 313 313 312 312 310 309 308 309 312 317 315 314 315 315 315 315 313 312 311 310 311 311 310 310 311 311 310 310 310 310 311 313 313 314 314 313 314 314 314 313 314 314 313 314 313 313 315 316 318 317 316 316 315 315 316 316 316 320 323 324 325 326 329 332 334 335 336 336 334 334 333
304 304 304 304 305 306 307 307 307 308 311 314 313 314 314 312 312 314 314 313 313 312 310 309 309 312 316 315 315 316 316 315 314 314 313 312 311 311 310 310 311 311 310 310 310 311 311 312 314 313 314 314 314 314 313 312 312 313 315 314 314 314 314 314 315 318 318 316 317 316 316 317 316 317 319 322 323 324 325 328 331 334 335 334 335 334 334 333
304 304 304 304 304 305 306 307 307 309 313 314 313 313 313 312 312 315 315 313 312 311 311 309 309 314 315 314 315 316 315 315 315 314 314 312 312 311 311 311 312 311 311 311 311 312 312 313 315 315 315 315 315 314 313 312 313 314 314 314 314 314 314 314 315 318 318 316 317 316 316 317 317 316 317 320 323 324 325 327 331 333 334 334 334 333 333 333
304 304 304 304 304 304 306 306 307 311 314 314 313 313 313 312 313 315 314 313 314 315 315 312 312 315 314 314 315 315 315 315 314 314 314 313 312 312 312 312 312 312 313 313 313 313 314 314 314 314 315 315 315 315 314 313 314 315 315 315 314 313 313 315 316 318 318 316 316 317 316 317 318 317 316 319 323 325 325 327 330 331 332 333 333 333 333 333
304 304 304 304 304 305 306 306 309 313 314 313 313 314 316 316 317 317 316 315 315 316 316 314 314 315 315 315 315 315 315 314 314 314 314 313 312 313 313 312 312 313 313 314 314 315 315 315 315 314 315 316 316 317 317 316 316 316 316 315 314 314 314 316 317 317 318 317 316 317 317 317 318 318 317 319 322 325 325 327 329 329 330 331 332 333 333 333
304 304 304 304 304 306 306 308 311 313 313 313 313 314 317 316 317 316 315 316 315 314 314 315 314 314 315 315 315 315 316 315 314 314 313 313 313 313 312 312 313 313 313 315 315 315 314 314 315 315 316 317 317 318 318 317 317 317 316 315 315 314 314 316 318 317 318 318 317 317 317 316 318 318 318 319 320 323 325 326 328 327 327 328 330 331 333 333
304 304 305 304 305 307 308 310 312 313 313 313 313 315 316 315 314 313 313 315 316 314 314 314 313 313 314 314 314 315 316 316 315 314 313 313 313 313 313 312 313 314 314 314 314 314 313 314 315 316 317 318 318 318 318 319 318 316 316 316 315 314 315 317 319 318 318 317 316 317 316 316 318 319 319 319 319 321 324 326 327 326 326 325 326 328 331 333
304 304 304 305 307 308 310 312 312 312 313 313 314 315 315 313 312 312 313 315 316 316 315 315 315 315 315 315 314 315 316 316 316 315 313 313 313 313 313 313 313 313 314 314 314 313 313 314 317 317 317 318 319 319 319 319 318 316 316 314 315 316 315 315 318 319 319 318 318 318 316 317 318 318 319 319 320 322 324 324 325 326 326 326 325 326 328 331
303 304 304 306 307 308 311 313 312 312 313 313 314 314 313 312 311 312 314 317 317 317 317 316 316 316 316 315 315 316 317 317 316 316 314 313 314 313 313 314 313 313 313 313 314 313 313 316 317 317 317 318 319 320 320 317 316 317 318 316 315 317 316 315 317 319 319 319 319 317 315 315 317 318 318 319 319 320 320 320 321 322 323 325 325 326 326 327
303 304 305 306 308 309 311 313 313 312 313 313 314 313 312 311 310 312 316 319 319 317 317 316 315 316 316 315 316 317 318 317 316 316 314 314 314 313 313 313 312 313 312 312 313 312 314 316 316 316 317 318 318 319 318 317 315 316 318 317 317 317 317 317 318 318 316 317 318 317 313 313 316 318 318 319 319 318 318 319 319 319 319 321 322 323 324 326
304 304 304 305 306 308 310 313 312 311 312 314 314 312 311 311 310 313 317 320 317 315 316 316 315 316 316 316 317 317 317 316 314 315 315 313 313 313 313 313 312 314 313 313 314 313 314 316 316 317 317 317 317 317 317 317 314 314 317 318 317 317 318 318 318 316 313 314 317 318 314 312 314 317 318 319 318 318 319 318 318 319 318 318 319 320 321 324
304 305 305 305 306 307 311 314 312 311 313 314 313 311 311 310 311 315 319 318 316 314 315 315 314 314 315 316 316 316 316 314 312 313 314 313 313 312 313 313 313 313 313 314 314 313 315 316 315 317 317 316 316 316 318 318 314 315 320 319 317 317 318 318 318 316 314 315 317 317 315 313 312 315 318 318 317 317 319 318 318 318 317 318 318 318 319 320
304 305 305 305 307 306 309 311 311 312 313 313 311 310 309 309 313 318 320 317 316 315 314 314 313 312 313 313 314 315 314 313 313 313 312 313 313 313 314 314 313 313 314 314 313 314 316 316 315 316 315 314 315 315 318 318 316 317 319 319 318 318 318 319 317 316 316 316 314 315 316 314 312 315 318 317 316 317 318 318 317 318 318 318 318 318 319 318
304 305 305 307 310 310 310 309 310 312 312 310 309 308 309 312 317 321 319 316 316 314 312 313 312 312 311 312 313 314 314 314 314 312 311 312 312 312 313 313 314 313 313 313 313 314 315 314 315 314 313 313 315 316 317 318 318 318 318 317 317 318 318 318 316 315 316 315 313 314 316 314 312 314 316 316 316 316 318 317 317 318 318 318 319 319 318 317
306 305 305 308 310 311 311 310 309 310 309 308 308 308 312 318 320 320 317 315 316 313 313 313 311 311 311 312 313 313 314 314 313 312 311 312 312 312 311 312 313 313 314 314 313 314 313 313 313 313 313 314 315 316 316 317 318 317 317 317 316 317 317 317 316 314 314 314 314 315 316 314 312 313 315 317 317 317 318 317 317 319 318 318 318 317 316 316
307 306 307 310 311 311 312 312 310 309 309 310 310 311 317 321 320 318 315 315 314 312 312 312 311 311 311 312 313 312 313 313 313 313 312 312 312 312 312 311 313 313 314 314 313 313 313 312 313 313 313 314 314 314 315 316 316 317 317 316 315 315 315 315 314 314 313 313 315 315 316 315 313 313 315 317 317 316 317 317 318 319 318 318 317 316 316 316
307 309 311 313 314 314 314 313 311 309 309 310 311 315 320 319 317 317 315 314 314 312 312 311 310 311 311 312 312 311 312 312 312 313 312 313 313 313 312 313 313 313 312 313 313 313 313 313 313 312 313 313 313 313 314 315 316 316 316 314 314 313 314 313 313 313 313 313 315 315 315 314 313 314 316 317 317 316 318 317 317 317 317 317 316 316 316 317
308 310 312 315 316 315 314 313 311 309 308 309 313 317 317 314 314 317 315 314 313 312 311 311 310 311 311 312 311 311 311 311 312 312 312 312 313 312 311 311 312 313 312 312 313 312 312 313 313 312 313 314 313 312 313 314 315 315 314 314 313 312 313 314 312 312 312 313 315 315 315 314 312 314 317 317 317 316 316 316 315 315 315 315 315 316 317 318
307 310 312 314 316 316 316 313 311 309 307 310 316 316 312 309 313 317 316 314 312 311 310 310 310 311 311 311 311 310 311 311 311 312 312 312 313 313 312 311 311 312 313 313 312 311 311 312 313 313 313 312 312 312 313 313 314 314 314 314 313 313 313 313 312 312 311 313 315 315 314 313 313 315 316 316 316 315 314 313 313 314 314 314 316 316 317 318
306 309 312 314 315 316 316 314 310 308 308 313 316 312 308 308 312 315 315 313 312 311 311 310 310 311 311 311 310 310 310 311 310 312 313 312 313 313 314 313 312 312 312 312 312 312 310 311 312 312 312 312 313 313 313 313 313 314 314 313 313 313 313 312 313 314 312 312 314 314 313 313 314 315 315 315 315 313 313 313 312 313 313 315 315 316 317 318
305 307 311 313 313 315 316 313 309 307 310 315 313 309 309 310 312 314 313 311 311 312 311 311 311 312 312 311 310 310 310 310 310 311 312 312 313 313 312 312 312 312 312 312 313 312 311 311 312 312 312 312 312 312 313 312 313 313 313 312 313 314 313 313 314 314 312 312 313 313 313 314 314 315 315 314 313 312 312 313 313 313 314 314 315 315 317 318
304 307 311 313 313 315 315 312 308 309 313 315 311 309 312 312 313 313 311 310 310 310 311 313 312 311 312 311 311 310 310 310 310 310 311 311 312 312 311 312 311 311 312 313 314 313 311 312 313 312 312 312 312 312 312 312 312 312 312 312 313 313 313 313 313 313 312 313 313 312 313 313 312 314 315 314 313 313 312 312 313 314 314 314 314 314 315 317
303 307 311 313 313 315 314 310 309 311 314 314 311 312 313 312 312 311 310 310 310 310 311 312 312 311 311 312 311 310 310 311 310 310 310 310 311 311 311 311 311 311 312 312 313 314 312 311 312 312 313 312 312 312 312 312 312 312 313 313 312 312 313 312 313 313 313 313 313 313 313 312 312 313 315 314 314 313 312 312 312 313 313 313 313 314 314 316
304 307 312 312 312 312 311 309 310 313 314 312 310 313 314 313 311 310 309 310 310 311 311 312 312 311 311 311 311 311 311 311 311 311 310 310 311 311 311 311 311 311 312 312 313 313 313 312 312 312 313 313 312 313 312 312 312 312 312 312 312 313 313 313 313 313 313 313 314 313 313 313 313 314 315 315 315 314 313 312 312 312 313 313 313 314 314 315
305 308 313 313 311 310 310 309 311 313 312 311 311 313 314 313 311 309 308 309 310 310 311 312 311 311 312 311 310 311 310 310 310 311 310 310 310 310 310 310 311 311 311 311 312 312 313 313 312 312 313 313 312 313 312 312 313 313 312 313 313 313 313 313 313 313 313 313 313 313 313 313 314 316 315 315 315 314 313 312 312 312 312 312 313 314 314 315
304 306 311 312 310 309 310 310 312 313 312 312 313 313 313 312 311 310 308 308 309 310 310 311 311 311 312 311 311 311 310 311 310 309 310 309 308 310 310 310 310 311 310 310 311 312 312 312 312 312 312 312 312 312 312 312 312 313 313 313 313 313 313 313 312 312 313 312 312 313 313 313 315 316 316 315 314 313 313 313 312 312 312 312 313 313 314 314
305 307 308 308 306 307 310 312 313 313 312 312 312 312 311 310 310 310 309 309 309 309 309 310 311 311 312 311 311 311 310 311 310 309 310 309 308 309 310 309 310 310 310 310 311 313 312 310 310 310 310 310 311 311 311 310 311 312 313 312 313 313 313 313 312 312 312 312 312 312 312 313 315 315 315 315 314 313 313 312 312 311 312 312 313 313 313 313
307 307 307 305 303 306 309 310 311 311 311 311 310 310 309 309 309 309 309 309 310 309 310 310 310 310 311 311 310 310 310 310 310 309 309 309 309 309 309 310 311 311 310 310 311 312 312 310 309 309 309 309 310 310 310 310 310 311 312 313 312 313 313 313 313 312 312 312 312 312 312 313 314 314 315 315 313 312 312 312 312 311 312 312 312 313 313 313
306 307 307 305 304 306 308 309 309 309 311 311 310 310 309 309 309 309 309 310 309 309 310 310 309 310 309 309 309 310 309 309 309 309 309 309 309 308 309 310 311 311 311 311 312 311 310 309 310 309 308 310 310 310 310 309 310 310 312 313 312 311 312 313 313 312 312 313 312 311 311 312 313 313 314 313 312 311 312 311 311 311 311 312 312 313 313 313
306 307 308 306 305 307 308 309 310 310 310 311 310 310 309 308 308 309 309 309 308 309 309 309 309 308 308 308 308 309 308 308 309 309 308 309 309 308 308 309 310 312 312 311 313 311 308 309 311 309 308 309 309 309 310 309 310 310 311 311 311 310 311 312 312 312 312 312 312 311 311 312 313 313 312 311 311 310 310 310 310 311 311 311 312 312 313 313
307 307 308 307 307 308 308 308 309 310 309 309 309 309 309 309 308 307 308 308 308 308 309 309 308 308 308 308 308 308 308 307 308 308 308 309 309 308 308 308 309 312 312 310 310 310 309 310 311 309 309 309 309 309 310 309 310 310 310 310 310 310 311 311 311 310 311 311 311 311 312 312 312 312 311 311 311 310 311 310 309 310 311 312 313 313 312 312
307 307 307 307 307 308 308 308 308 309 308 308 309 309 309 309 309 307 307 308 307 307 309 308 308 308 309 309 309 310 309 308 308 308 309 309 309 307 307 307 308 308 310 309 309 309 309 309 310 310 310 309 308 309 309 308 308 309 309 309 310 310 311 311 310 310 311 311 310 311 312 311 311 311 311 311 311 310 311 311 310 310 311 312 313 312 311 311
306 307 306 305 307 308 307 307 308 308 308 308 309 309 309 308 308 308 307 307 307 307 308 308 307 307 308 309 310 310 309 309 309 310 310 309 309 308 306 307 307 306 308 309 308 309 309 309 310 310 310 308 308 308 308 308 307 308 308 309 309 310 310 310 310 310 310 310 310 310 311 311 311 310 311 311 311 311 311 311 311 311 312 312 312 311 311 310
305 306 304 304 307 307 307 306 307 307 307 308 308 308 308 308 308 307 306 307 308 307 307 308 308 307 306 307 308 309 310 310 310 310 311 309 309 309 308 308 307 306 308 308 308 309 308 308 310 309 308 308 308 308 308 307 307 308 308 308 309 309 310 310 310 310 310 310 310 310 311 311 310 309 311 312 312 311 311 312 312 312 312 311 311 311 310 310
303 304 304 305 306 306 306 306 307 307 307 307 308 307 307 307 307 306 305 306 308 307 307 308 307 306 306 306 308 309 309 309 309 310 310 309 309 309 308 308 307 307 307 307 308 308 307 307 309 308 307 307 307 307 307 307 307 307 307 308 308 308 309 309 310 310 310 310 310 311 311 310 310 309 310 312 312 310 310 311 311 311 311 311 311 311 310 308
299 300 302 305 305 305 306 306 306 306 306 306 307 306 306 306 305 305 304 304 305 306 306 307 307 306 306 306 307 307 305 305 307 307 307 308 308 307 307 307 307 307 307 306 307 308 306 307 308 307 306 307 306 306 307 306 306 306 307 307 307 308 308 309 309 309 310 310 309 310 309 309 309 309 310 311 311 310 310 310 310 311 311 311 311 310 309 307
298 298 300 304 305 304 305 305 305 305 305 305 305 305 305 305 304 305 304 303 303 304 304 306 307 306 307 307 306 303 302 303 304 304 304 305 305 305 306 306 305 306 306 306 307 306 306 306 306 306 306 306 306 306 306 305 305 305 306 307 307 307 307 307 308 308 309 309 308 308 309 308 309 309 309 309 309 310 309 309 310 311 311 310 310 309 307 306
Wind_Speed
6 5 5 4 4 4 5 6 7 7 7 7 6 7 6 5 4 3 2 1 1 2 2 2 3 3 3 3 3 4 4 5 6 8 8 4 5 7 8 7 8 8 8 10 10 8 8 8 8 8 8 8 8 7 8 7 6 6 6 6 6 5 3 1 3 2 4 2 3 8 9 11 9 2 3 4 10 11 11 11 7 8 7 10 16 22 24 23
5 4 4 4 4 5 6 6 7 7 7 6 6 6 5 4 4 3 2 0 1 2 2 1 2 2 2 2 2 3 3 4 4 5 5 3 7 7 7 8 8 9 9 9 9 8 8 9 9 10 10 9 8 7 8 8 8 8 5 5 6 4 2 2 3 4 5 6 8 10 10 11 9 3 3 5 11 14 12 12 11 10 11 14 20 20 21 24
5 5 5 5 5 6 6 7 7 7 6 6 5 5 5 4 4 3 2 1 1 1 1 1 1 1 2 2 2 2 1 1 1 1 0 1 5 8 8 8 9 10 10 9 8 8 7 7 9 10 10 9 7 7 8 8 8 8 5 6 5 3 3 3 5 6 7 9 11 10 11 11 5 2 3 6 9 13 13 12 14 14 14 17 20 18 20 25
6 6 6 6 6 7 7 7 7 7 6 6 4 4 4 4 4 3 2 1 0 1 1 0 1 1 1 1 1 1 2 4 3 3 1 1 2 7 9 10 11 12 11 9 8 7 6 6 8 9 9 8 7 7 8 8 6 5 5 7 4 2 4 5 5 7 8 9 11 10 11 8 3 3 6 6 7 10 13 12 12 15 18 19 20 19 20 23
6 6 7 7 7 7 8 8 8 8 7 6 4 3 3 3 4 3 2 1 0 1 1 0 1 1 1 1 0 2 1 3 4 1 0 3 0 5 9 10 13 13 11 9 7 6 6 7 8 8 9 7 7 9 7 8 5 4 7 10 7 5 6 6 5 6 7 8 9 9 9 7 4 5 6 7 7 4 7 9 6 10 18 20 21 21 21 23
6 7 7 8 7 7 8 8 9 9 9 7 4 3 2 3 3 3 3 2 1 1 1 0 0 0 0 1 2 2 3 1 5 1 1 3 3 5 8 11 13 14 11 8 6 6 7 8 9 8 8 6 7 7 4 7 7 6 8 9 8 8 7 7 7 7 7 9 9 8 8 7 7 6 5 9 5 4 3 6 6 10 16 18 21 22 23 23
5 6 7 8 8 8 8 8 9 10 10 9 7 4 2 2 3 4 3 2 1 1 1 1 1 1 1 2 4 3 2 4 4 2 2 3 4 7 8 11 13 12 10 8 6 6 7 8 8 7 6 5 6 6 3 7 9 9 7 5 7 8 8 9 9 7 8 10 10 9 8 7 7 4 3 8 2 5 3 6 9 13 16 17 19 22 23 23
4 5 6 8 8 8 8 9 10 10 11 11 10 7 4 3 3 4 3 2 2 1 2 2 2 2 3 3 2 2 3 4 3 1 4 5 5 7 8 11 12 11 9 7 6 6 8 7 6 6 6 2 4 6 4 6 10 10 8 5 7 7 8 9 8 9 10 10 8 8 8 6 5 2 3 6 4 3 4 9 12 14 16 17 18 22 23 22
3 4 5 6 7 6 7 8 9 10 11 11 10 9 7 4 4 4 3 2 2 2 3 3 4 4 3 3 1 3 4 5 2 3 6 7 7 7 8 9 10 10 8 7 6 6 7 5 4 4 3 4 4 5 5 7 6 7 8 6 7 7 7 7 8 9 8 5 4 5 5 3 3 4 4 5 6 5 6 10 13 14 17 18 19 22 22 21
3 3 4 5 5 5 6 7 8 10 11 12 11 9 7 6 5 4 3 2 2 3 3 4 5 4 4 3 4 2 6 6 4 5 7 9 7 7 8 7 8 9 8 7 7 6 4 3 3 2 2 4 4 3 5 7 1 2 7 8 9 10 7 7 7 7 5 4 4 5 3 3 5 7 4 6 6 5 7 10 13 15 18 19 20 21 20 19
4 3 3 4 4 4 5 6 7 9 10 12 11 8 7 6 6 5 4 3 3 3 3 4 6 4 4 1 5 1 8 7 7 6 7 9 7 8 7 6 8 8 7 7 7 4 3 3 3 3 3 4 5 4 5 5 3 4 7 9 10 8 4 5 5 5 5 4 5 6 3 5 6 4 3 6 7 7 7 10 13 15 17 19 20 20 19 19
5 4 4 4 4 4 4 6 7 8 10 11 11 9 7 6 6 5 4 3 3 4 3 5 5 4 3 1 3 4 8 7 8 7 8 10 8 8 7 6 7 7 6 6 6 4 2 2 0 3 1 3 5 5 4 2 5 7 7 7 7 6 4 2 2 4 4 3 3 6 5 7 6 4 6 5 6 7 8 10 12 14 15 18 19 19 18 19
6 5 4 4 4 4 5 6 7 8 9 10 11 8 6 6 6 5 5 4 4 4 4 4 4 4 1 1 4 7 7 6 7 6 8 10 9 8 7 8 10 9 8 6 5 4 3 2 2 4 2 3 3 1 1 3 6 7 6 6 5 6 5 4 3 5 4 3 2 6 6 7 7 7 6 5 6 8 9 10 12 13 14 16 17 17 18 18
6 6 5 5 5 5 5 6 7 7 8 10 9 7 6 5 5 6 6 5 5 4 4 3 3 3 2 3 6 6 6 5 5 5 6 8 9 9 10 11 12 11 9 7 6 5 4 2 2 3 3 5 2 2 4 5 6 4 4 4 4 5 6 8 3 5 6 3 2 7 6 5 7 6 4 5 5 7 8 9 11 12 13 15 16 17 17 18
5 6 6 5 5 6 6 6 7 6 7 9 9 7 5 4 4 5 6 6 5 4 3 3 3 2 2 5 6 5 8 6 4 5 5 7 7 7 9 10 9 9 8 6 5 4 3 2 3 4 2 3 4 5 5 5 5 4 4 4 4 4 6 10 5 2 4 5 2 6 6 4 6 6 4 4 5 6 7 8 10 12 13 14 15 16 16 17
5 5 5 6 6 6 6 7 6 6 6 7 8 7 5 5 3 1 5 7 5 4 2 1 2 1 2 5 7 6 8 5 4 5 6 8 6 6 7 8 7 5 4 4 4 3 3 2 3 3 2 4 5 5 4 4 5 5 4 2 3 3 5 8 6 5 4 3 3 5 6 2 5 4 4 3 4 6 7 7 9 11 12 13 14 16 16 16
3 4 4 5 5 6 6 6 6 4 5 6 8 7 6 8 4 2 4 8 7 4 1 1 3 2 1 5 7 6 6 4 7 7 7 9 8 7 7 7 5 2 1 3 2 3 3 3 3 3 3 3 3 4 5 5 4 5 3 1 2 3 2 6 7 6 2 3 3 3 6 1 3 1 2 3 5 6 7 7 8 9 10 12 13 15 16 15
3 3 3 3 4 4 4 5 4 2 3 5 7 7 7 9 4 4 3 10 7 3 1 3 4 2 3 7 6 5 4 5 9 9 8 9 9 8 6 5 5 3 5 5 4 4 4 4 4 3 4 4 3 5 4 1 1 2 3 2 3 3 3 2 5 5 2 3 3 3 6 2 1 2 2 4 5 6 8 6 7 8 10 11 13 15 16 15
2 2 1 1 2 2 3 3 2 0 2 4 6 7 6 8 2 5 5 10 4 2 1 5 5 2 3 7 4 3 2 6 11 10 9 10 9 9 7 6 5 6 7 5 6 6 4 4 5 4 4 3 1 3 4 4 3 2 2 3 3 5 4 1 5 6 4 3 4 3 4 2 0 1 2 4 5 7 9 7 6 8 10 11 13 14 15 14
2 2 1 0 1 2 3 2 1 1 2 3 6 6 4 6 1 4 6 8 5 4 3 2 5 4 2 5 4 1 2 7 10 10 11 11 10 10 7 6 6 7 7 3 4 5 3 5 5 3 0 2 2 2 4 3 3 2 3 4 5 4 4 3 4 4 4 4 4 2 3 4 2 1 2 4 6 7 10 9 9 9 10 11 12 14 14 13
2 2 1 1 2 3 3 3 2 1 2 2 4 4 4 7 3 2 7 5 4 5 5 4 6 6 3 4 3 1 4 7 8 10 12 11 11 10 8 8 7 7 4 2 2 3 4 6 3 0 3 3 1 1 1 1 2 4 5 6 6 6 4 4 3 3 3 5 3 2 5 6 2 0 4 4 6 8 11 11 10 10 10 10 11 12 13 12
2 2 2 2 3 4 4 3 1 1 1 1 4 4 3 5 5 7 8 5 4 5 4 4 6 6 3 3 3 2 5 7 9 11 11 11 11 9 7 8 7 4 5 4 4 4 6 6 3 4 3 3 2 2 4 4 4 5 5 6 5 5 3 5 5 3 1 4 3 1 6 6 3 2 4 6 7 7 9 10 10 10 10 11 10 11 12 13
2 2 2 3 4 4 3 2 1 1 1 1 3 2 3 6 9 9 7 6 4 2 2 4 5 4 3 3 3 4 6 6 8 12 12 11 10 7 5 6 4 3 5 7 6 5 4 2 6 6 3 4 4 4 6 4 4 6 5 6 5 2 3 3 5 4 1 3 4 3 6 7 5 5 6 7 7 5 6 7 8 9 10 10 10 10 12 14
2 2 1 3 4 3 2 1 0 1 2 1 1 2 6 9 11 10 5 5 2 1 1 2 3 3 3 3 4 6 5 3 4 9 12 11 8 6 5 4 3 4 5 5 5 6 0 7 6 4 3 5 5 6 7 6 5 6 6 7 5 2 4 4 2 3 3 3 3 5 7 7 6 8 7 7 7 6 6 7 7 9 10 10 11 12 12 14
2 2 1 2 3 2 2 2 2 1 2 4 4 5 9 11 12 8 4 5 2 3 2 3 3 2 3 4 5 4 3 3 2 4 9 11 7 4 3 3 4 4 3 3 5 6 2 6 3 3 4 5 6 6 7 6 5 5 7 9 7 4 5 4 2 3 5 5 2 4 7 4 4 6 5 6 7 8 7 7 6 7 9 11 13 14 13 14
3 2 1 1 3 3 2 2 3 2 4 4 5 8 10 12 11 6 4 4 3 4 2 4 4 3 4 4 5 5 5 4 2 3 9 10 7 4 3 4 3 1 2 3 4 2 3 4 2 3 4 5 6 6 5 6 7 4 5 8 9 7 6 6 5 5 6 3 2 2 7 4 3 5 5 5 6 8 7 6 6 6 7 10 11 12 12 12
4 3 2 1 2 4 3 3 5 5 4 5 8 11 11 11 9 4 4 4 4 2 2 4 2 3 4 2 5 6 3 5 4 4 8 9 8 6 5 4 3 2 2 3 3 1 3 5 4 4 4 5 7 5 5 7 8 1 2 5 9 8 7 7 7 6 5 3 2 5 6 6 6 4 5 5 7 8 8 6 6 6 6 6 7 8 9 9
5 4 2 2 2 3 4 5 5 5 6 7 10 11 10 9 5 3 5 2 4 0 2 4 2 2 3 1 5 5 2 2 2 5 7 9 8 6 7 4 3 3 5 5 2 4 3 4 5 5 5 6 4 1 3 8 7 2 3 2 5 5 6 6 7 6 4 3 5 6 5 6 7 3 5 6 8 9 8 6 5 6 5 5 5 6 7 8
4 3 2 1 0 0 2 4 3 4 7 8 9 8 8 6 2 4 5 0 2 2 2 2 3 3 1 3 5 4 3 2 1 4 7 9 8 5 4 2 3 2 5 6 4 2 2 1 2 5 6 4 1 6 2 6 4 2 2 3 4 4 5 5 6 6 3 5 8 5 4 6 7 4 6 7 7 7 5 4 4 5 4 3 2 4 7 8
4 2 1 1 1 1 2 2 3 5 6 7 7 6 5 3 3 5 4 1 1 3 2 1 1 1 3 6 5 3 3 2 2 4 6 5 7 6 2 1 3 3 4 6 6 1 3 2 1 4 6 2 4 4 2 2 1 4 5 5 5 5 5 5 5 4 5 7 7 3 4 5 6 5 4 3 0 1 0 2 3 3 2 2 4 6 7 9
3 0 2 3 2 2 3 1 2 3 3 5 5 4 3 3 4 4 3 1 0 3 3 2 1 0 3 4 4 4 4 4 3 5 6 5 6 7 4 3 4 5 5 6 5 3 5 6 3 3 4 2 1 2 2 1 3 5 6 6 6 5 4 5 5 4 6 7 1 3 3 6 7 5 2 2 3 3 1 2 1 1 3 5 7 8 9 10
2 2 3 2 1 1 1 1 2 3 3 4 4 4 5 4 5 3 2 3 2 2 2 2 3 1 2 3 4 4 3 3 3 2 2 3 4 3 2 2 1 4 5 4 3 3 5 5 4 4 5 6 7 5 4 4 5 6 6 6 6 6 5 6 6 5 7 4 4 5 3 5 7 4 2 4 3 2 0 2 2 4 6 7 8 9 9 9
2 4 3 2 2 1 2 3 3 4 4 3 3 5 5 5 5 1 2 3 1 3 2 1 2 1 3 3 4 3 1 2 2 1 1 2 3 3 1 2 2 4 4 2 2 3 4 4 6 5 5 5 8 7 4 5 6 8 7 6 6 6 6 7 6 6 7 2 4 4 2 5 7 2 4 4 3 3 2 1 2 4 6 7 7 8 8 9
5 5 5 5 5 4 4 4 5 5 4 2 4 5 4 5 2 1 2 3 3 2 2 1 1 2 1 2 4 2 1 3 2 1 3 4 4 3 3 3 1 4 3 3 3 4 5 3 4 3 2 3 7 6 5 4 5 7 6 6 7 6 6 7 6 6 7 2 4 5 3 5 5 1 4 3 4 4 3 2 2 3 4 5 6 8 9 9
7 6 7 7 7 7 5 5 6 5 3 3 5 5 5 4 2 3 3 2 3 3 3 1 4 4 3 4 4 2 2 2 2 1 1 2 2 1 2 3 2 2 3 4 2 1 7 4 4 3 2 2 4 3 4 7 6 5 5 7 7 5 6 5 2 3 4 4 3 4 4 3 1 4 4 5 5 5 4 4 4 4 5 6 7 9 10 10
8 7 7 8 9 9 7 5 5 5 3 4 6 5 4 2 1 2 1 1 0 2 3 4 5 5 4 4 3 3 1 1 1 2 1 2 1 2 2 3 3 2 3 3 1 2 6 3 6 4 2 2 2 2 3 6 5 2 5 8 3 2 6 5 2 2 1 7 7 4 6 5 2 4 7 7 7 7 6 5 5 6 7 7 9 10 11 11
7 6 7 8 10 10 8 5 4 3 4 6 6 4 2 0 1 0 1 1 1 1 4 5 3 3 4 3 4 5 2 1 2 2 2 3 1 2 3 3 3 3 3 3 2 1 4 4 4 4 3 4 2 2 3 4 5 4 5 4 1 1 4 5 5 3 5 8 7 5 8 8 6 4 7 9 8 8 7 6 7 7 7 8 10 10 10 11
7 5 6 9 10 10 9 6 3 3 4 6 6 4 3 2 2 1 1 1 2 3 6 5 2 2 4 4 4 4 2 3 2 2 3 3 1 1 2 2 3 3 3 3 3 1 3 6 4 4 2 4 4 4 4 4 5 6 4 1 2 5 6 5 6 6 8 8 7 7 9 8 8 5 6 9 10 9 8 7 8 7 8 8 9 10 10 11
7 5 6 9 10 8 8 6 2 4 5 6 5 4 3 3 4 2 0 1 3 5 5 5 2 2 4 4 2 3 2 3 1 2 3 2 2 2 1 1 2 3 2 3 3 1 2 5 2 3 3 2 4 6 7 5 6 4 4 4 4 5 6 6 5 6 8 8 8 9 9 7 6 4 5 8 10 10 9 8 7 8 8 8 8 9 10 12
6 5 6 8 9 6 5 4 4 6 6 4 4 2 3 4 5 4 0 1 3 3 3 4 4 4 4 3 3 2 2 3 3 3 2 2 2 3 2 0 1 2 1 2 2 0 2 4 5 3 4 3 5 4 4 5 3 4 6 7 6 4 4 5 7 7 7 8 8 8 9 7 1 2 3 6 10 10 10 9 8 8 9 8 8 8 9 12
3 4 4 6 8 5 3 5 5 5 5 3 3 2 2 2 3 5 2 1 2 2 2 3 4 4 3 3 4 4 3 4 5 4 3 3 4 2 2 1 2 1 1 4 3 1 2 3 6 5 4 6 3 3 3 6 4 5 6 7 7 6 6 7 9 8 6 8 9 8 10 7 2 3 2 5 10 10 10 10 8 9 9 8 8 8 9 11
2 4 2 4 6 3 4 6 3 2 4 3 1 1 2 0 2 3 3 3 3 2 2 3 3 4 4 4 4 4 4 5 5 5 4 3 3 1 3 2 3 3 4 4 0 2 2 3 6 7 8 8 1 5 2 3 4 6 6 6 7 6 7 9 9 7 6 8 7 7 10 5 4 3 1 5 10 10 11 10 9 10 9 8 8 8 9 11
3 5 4 6 5 4 6 6 3 4 4 1 1 1 1 1 3 3 3 3 3 2 3 3 3 3 4 4 4 6 6 5 5 4 3 3 3 3 4 2 2 4 4 3 1 3 1 3 6 7 8 8 3 3 3 2 3 7 7 6 6 6 7 8 8 8 7 8 8 8 10 5 5 4 1 5 9 10 10 9 9 9 8 7 8 8 8 9
6 5 4 6 3 6 7 5 4 5 3 2 2 3 3 1 1 2 2 2 1 1 3 2 2 1 1 2 4 6 5 4 5 4 3 4 3 5 4 2 2 4 2 2 1 2 2 4 4 6 7 7 6 5 5 5 6 7 6 4 4 7 7 6 7 7 7 11 13 10 10 6 4 6 4 6 8 9 10 9 8 9 8 7 7 7 7 8
6 3 1 6 5 3 3 2 2 3 2 4 4 3 3 2 2 2 2 1 2 2 2 0 1 1 2 3 4 5 4 5 5 3 3 4 4 4 2 2 1 2 3 5 3 2 4 5 4 6 7 6 7 6 3 2 4 5 4 3 4 7 8 6 7 8 9 11 12 10 10 7 4 8 7 8 8 8 10 10 9 9 9 9 8 7 7 7
4 1 1 4 7 5 5 6 4 2 1 2 3 2 2 4 3 3 1 0 2 1 2 1 0 2 3 4 6 6 6 6 5 4 4 5 5 4 2 2 1 2 4 5 2 2 5 5 6 9 10 8 9 8 4 5 6 6 5 6 5 5 6 6 7 9 9 10 11 11 12 11 5 8 10 10 9 9 10 10 10 11 11 10 10 9 8 7
2 2 3 2 3 5 5 6 5 2 1 1 1 1 1 3 2 2 1 1 2 0 1 1 2 4 4 5 7 6 6 6 6 6 5 4 4 5 3 2 1 3 2 1 0 3 5 6 8 11 12 12 13 12 7 6 9 12 11 10 8 6 7 8 9 9 9 9 10 10 12 13 10 8 9 10 9 9 10 11 11 11 11 11 10 10 9 8
4 2 4 3 2 2 3 5 6 4 2 1 1 0 0 2 1 1 2 1 0 0 1 2 3 3 3 3 5 5 6 7 7 6 4 4 4 5 5 5 3 1 2 3 1 2 5 7 8 10 12 13 13 12 9 8 10 12 12 12 12 10 10 10 11 12 11 10 11 11 12 12 10 8 9 10 10 11 10 9 9 9 11 11 11 11 10 9
6 3 5 4 2 4 4 4 4 2 2 2 1 1 1 0 1 2 2 1 1 1 2 3 3 1 1 2 5 5 4 4 4 5 3 3 3 4 5 5 4 4 4 3 1 1 4 5 6 9 12 13 13 13 11 10 11 13 14 14 14 14 14 13 13 14 14 15 14 12 13 11 8 9 9 4 4 6 6 5 8 10 12 12 12 11 10 9
6 4 4 3 2 4 5 4 3 1 1 1 1 2 2 1 2 3 3 4 1 1 2 2 2 2 1 0 1 1 3 4 1 2 1 1 3 3 4 3 2 5 5 3 1 1 3 3 2 5 10 11 13 14 13 12 13 15 15 15 15 15 15 14 14 12 13 14 13 12 12 10 8 13 12 3 2 2 3 6 9 11 12 12 12 11 9 8
8 6 4 3 2 4 4 3 2 2 1 2 2 2 2 3 4 3 4 6 5 4 4 3 1 1 1 3 4 5 6 6 4 4 3 3 2 2 2 2 1 3 4 3 2 2 3 5 3 5 9 9 10 13 13 12 14 16 16 16 15 15 13 13 12 10 10 11 11 11 12 10 8 12 16 12 7 7 8 8 10 10 11 13 12 11 9 8
11 8 6 3 1 3 4 2 1 2 1 3 4 3 3 4 4 1 1 3 5 6 6 5 3 1 2 3 6 7 7 6 6 6 5 5 4 4 4 3 4 5 4 3 3 2 4 6 5 7 9 9 8 8 8 8 10 12 10 10 14 16 15 15 14 13 13 12 10 10 9 6 4 4 9 12 12 11 10 9 10 11 12 13 12 11 9 7
Wind_Direction
348 352 2 5 359 356 353 350 347 346 345 345 351 358 359 360 13 17 345 289 197 193 202 200 206 207 218 233 244 250 256 261 263 269 270 247 227 222 226 223 202 200 186 173 178 187 189 194 195 193 194 192 204 198 182 193 198 210 227 236 239 233 231 247 244 278 331 324 343 338 346 338 333 304 242 226 211 206 183 175 152 136 109 105 128 136 148 156
5 16 24 18 14 12 4 358 354 353 352 352 354 359 3 8 18 20 2 329 159 163 173 190 217 215 232 252 259 267 276 271 262 267 275 242 228 222 215 211 189 182 169 169 184 186 191 196 188 187 194 194 192 188 186 187 201 225 240 235 243 245 244 339 299 307 303 299 322 324 336 337 328 317 230 223 200 189 183 178 169 145 122 126 133 140 154 157
37 40 37 25 25 21 13 9 2 3 2 359 358 359 9 16 23 29 15 14 110 135 157 206 243 254 265 278 286 303 350 183 155 140 256 248 229 221 213 203 180 170 162 168 181 186 195 188 182 190 198 201 189 190 195 184 199 225 238 240 241 258 274 287 275 280 289 302 313 315 325 326 326 316 251 237 201 189 194 182 179 170 146 142 142 149 159 158
49 45 40 31 28 27 24 19 13 13 7 4 3 360 14 24 26 33 31 24 84 125 126 223 274 297 289 308 305 63 113 164 132 106 106 354 235 210 207 193 172 163 159 170 175 177 182 173 181 191 204 204 180 197 203 182 196 208 219 250 265 298 276 266 260 271 288 303 305 309 315 322 356 281 261 241 206 199 205 187 185 181 157 149 151 157 162 159
52 46 39 34 32 34 32 29 25 22 14 8 2 2 18 26 24 30 39 43 69 110 115 263 318 314 311 325 97 96 227 196 105 91 353 33 148 183 193 184 166 160 160 169 165 169 174 170 179 187 208 206 176 201 202 184 211 228 225 252 277 283 272 272 277 284 295 298 294 298 307 328 331 261 250 238 219 202 196 176 176 178 161 156 155 160 165 161
48 47 40 36 38 41 39 36 33 28 23 15 5 7 8 20 23 26 34 50 80 123 148 125 60 321 348 27 97 76 304 19 72 274 234 73 85 133 170 171 161 161 163 166 161 175 174 173 187 189 205 207 191 202 183 182 214 243 231 241 262 268 273 280 282 285 292 288 285 295 310 317 293 258 236 233 232 39 108 155 142 150 153 153 154 162 167 162
37 43 40 40 42 45 43 40 37 32 29 23 19 16 1 21 22 24 34 48 82 131 126 115 130 133 129 90 80 79 27 37 39 271 168 116 97 113 149 156 159 162 163 170 170 182 176 184 197 188 201 203 198 203 174 193 214 243 252 246 259 268 271 273 277 280 281 279 284 291 292 285 275 269 225 219 203 40 109 149 134 136 141 146 155 165 167 164
26 33 38 41 44 47 45 42 39 33 30 27 26 25 18 21 17 21 27 42 82 105 107 116 120 121 134 100 81 140 89 35 6 180 150 146 120 113 137 149 159 162 168 180 176 183 179 183 184 188 212 168 176 195 184 212 215 232 257 264 262 267 265 269 278 278 276 276 279 274 266 266 268 265 226 200 148 78 127 145 139 138 142 149 162 167 167 168
3 18 28 37 40 42 41 37 35 31 29 26 27 29 28 26 21 20 19 51 81 87 103 117 117 123 128 104 219 213 76 38 31 138 147 148 138 128 136 152 162 164 177 183 174 184 180 176 165 201 226 119 164 191 187 226 213 211 246 264 263 263 267 280 286 277 272 266 259 247 237 230 223 216 203 165 142 117 121 143 147 147 151 157 168 170 170 171
313 350 9 21 26 25 27 26 26 26 26 25 25 26 26 26 23 19 27 57 78 87 110 122 118 124 112 110 239 217 76 58 83 127 148 145 154 149 144 164 168 168 180 178 175 177 166 155 134 183 202 138 182 196 196 236 280 198 252 272 270 270 278 285 282 268 251 230 224 230 209 138 188 215 181 133 151 148 132 145 152 155 158 160 168 171 173 173
292 302 332 353 358 360 9 13 18 19 20 23 23 22 22 24 25 28 40 58 78 86 109 120 118 118 108 117 279 83 90 77 87 117 143 140 163 168 163 177 174 178 179 172 172 162 148 121 112 199 188 157 187 196 202 244 303 274 273 277 262 255 259 263 257 237 227 201 202 220 176 138 185 209 84 115 160 167 153 155 159 161 159 162 165 167 172 173
286 287 295 313 322 331 346 359 9 11 16 19 19 21 20 25 34 39 49 59 77 84 103 116 114 106 115 258 313 95 106 95 92 106 119 125 154 171 178 184 177 186 179 171 176 170 176 132 291 268 186 176 195 187 188 246 278 268 273 276 254 210 182 200 182 183 201 164 183 223 190 166 169 109 75 119 164 173 175 169 166 166 160 162 164 167 172 174
278 279 282 289 295 304 323 344 357 1 10 14 17 20 21 31 39 41 49 55 64 78 98 108 110 103 117 191 120 117 112 106 106 104 106 111 129 144 152 156 156 163 161 167 179 185 207 189 288 306 327 242 217 140 243 247 262 257 246 263 254 196 156 101 133 162 154 117 198 236 217 172 139 92 91 134 163 177 185 178 173 171 165 165 167 170 171 174
273 271 276 279 282 289 307 330 343 353 3 7 11 18 25 35 38 40 42 45 53 65 93 101 110 109 95 117 126 123 112 118 127 123 115 111 118 124 126 134 139 144 149 162 179 195 220 213 265 270 255 257 282 305 257 223 230 240 227 233 239 206 129 93 112 166 146 112 219 242 241 172 124 93 102 139 168 187 190 183 179 174 171 171 170 173 172 174
280 272 270 271 275 281 293 312 328 344 356 360 4 9 17 22 30 42 37 36 37 40 81 92 98 114 155 135 128 123 118 125 135 138 146 136 134 135 131 136 140 145 153 171 191 203 207 199 251 255 227 237 252 251 228 197 200 222 227 196 206 214 119 101 77 72 117 111 185 244 245 170 117 86 99 148 179 198 203 188 185 181 176 175 173 176 175 175
290 281 269 267 268 272 283 297 312 335 349 354 357 355 359 358 350 37 26 20 10 18 50 39 101 135 238 142 130 130 121 126 162 162 159 153 158 156 138 134 137 141 159 192 203 188 183 200 245 263 250 220 229 241 219 194 188 206 241 194 185 218 148 127 99 69 82 126 172 242 260 185 114 89 95 155 192 202 211 192 187 187 181 181 180 181 178 175
295 290 277 268 264 267 276 284 297 325 344 347 352 352 345 342 324 206 9 360 349 357 352 278 135 137 194 139 141 143 130 148 173 174 165 159 160 154 138 132 138 115 126 177 174 165 180 204 224 224 230 234 240 250 230 211 187 185 227 197 165 244 206 150 128 94 77 211 168 216 263 296 99 136 126 181 208 214 218 198 190 190 187 188 187 187 184 180
305 296 287 275 265 263 263 272 285 312 345 346 350 344 331 337 329 178 354 347 340 331 282 179 182 196 153 160 162 140 142 167 167 171 172 166 162 159 156 151 154 145 150 157 154 175 194 202 235 233 205 215 222 238 239 237 219 185 206 203 169 202 237 174 119 77 28 218 172 196 237 239 108 208 198 199 211 223 221 205 200 197 194 195 194 196 192 186
318 313 318 287 253 244 240 249 255 281 355 349 348 337 334 348 324 175 347 337 298 262 248 167 202 268 112 148 159 125 155 170 162 167 171 172 172 168 172 170 171 181 186 186 165 179 215 208 225 237 210 199 193 287 315 3 356 316 258 261 220 194 206 144 87 57 15 252 200 201 242 245 217 172 174 205 213 228 224 210 213 206 202 203 201 202 197 191
335 341 3 294 200 204 203 192 170 91 16 351 352 342 341 352 289 175 344 317 248 279 315 208 235 276 92 133 151 112 139 156 156 164 171 174 173 170 180 183 187 205 215 218 156 161 235 234 224 237 249 57 45 340 333 352 336 286 248 238 237 230 201 132 98 73 15 294 206 147 275 251 260 79 134 201 209 224 225 215 219 216 212 212 208 208 199 193
355 6 28 101 153 168 165 148 145 84 31 7 11 10 9 359 350 352 339 289 238 294 290 255 246 244 210 153 172 116 138 157 153 164 173 169 175 180 179 189 207 209 191 171 143 148 226 243 221 71 28 44 77 201 220 253 254 239 238 226 220 230 202 116 100 94 30 296 208 143 262 243 233 180 138 180 208 220 223 219 223 223 224 224 219 217 206 195
4 17 45 110 142 147 144 137 137 95 49 42 38 41 38 8 352 345 329 281 269 297 272 244 241 240 230 194 197 151 159 171 157 167 178 171 188 199 171 190 222 195 145 173 198 183 220 236 133 102 82 105 142 192 203 215 229 228 230 231 224 220 196 125 122 134 69 287 254 166 272 256 236 228 173 188 210 214 219 223 227 229 232 233 229 225 215 204
11 26 58 121 143 145 143 142 130 157 201 53 53 43 1 350 344 344 322 280 281 278 233 235 233 238 226 203 193 178 184 189 165 172 186 180 193 213 191 195 216 166 171 200 223 231 227 161 107 111 142 166 166 180 200 206 213 224 223 227 223 180 224 198 143 149 140 291 294 304 280 264 235 222 205 198 205 204 210 224 233 236 239 239 239 236 225 216
16 17 55 132 152 156 147 147 197 206 221 294 342 316 329 337 340 344 310 268 276 137 186 213 203 208 201 187 177 186 196 207 172 171 187 194 189 199 210 209 203 200 195 196 235 259 281 86 100 139 185 208 198 178 201 222 207 208 224 241 241 180 242 263 138 162 200 203 266 281 264 254 227 222 213 184 192 210 209 217 230 235 238 239 244 243 236 230
5 350 25 150 170 175 198 234 231 221 265 287 294 302 318 330 336 337 288 253 191 134 154 159 170 182 186 186 167 186 216 198 187 167 184 201 199 187 187 203 229 217 165 170 233 253 93 88 130 196 203 217 217 199 206 234 237 204 209 232 253 247 235 249 211 222 241 210 189 285 270 247 181 212 213 170 187 204 198 206 219 225 227 230 239 243 241 237
348 341 333 204 198 198 226 233 211 256 289 262 274 298 312 325 328 325 277 241 138 119 160 157 166 157 157 181 170 206 227 175 152 193 187 193 199 219 194 173 230 269 116 190 239 270 94 112 186 221 220 213 223 226 196 221 251 226 189 210 231 242 226 228 227 230 259 251 138 271 276 264 195 203 189 176 202 194 176 189 208 216 219 222 232 240 242 240
340 337 304 279 240 227 238 239 232 274 290 250 277 299 310 319 325 320 262 214 120 86 180 138 129 130 130 163 186 216 227 118 123 163 187 191 183 224 232 174 194 155 137 232 230 147 126 147 182 218 234 222 228 227 179 214 248 272 85 200 213 221 215 222 232 235 268 297 200 221 259 273 255 217 162 177 213 197 173 172 193 205 211 219 234 243 250 253
333 329 309 313 282 240 240 249 255 277 275 268 286 299 306 313 322 291 255 191 97 82 167 118 108 137 122 174 202 238 329 97 163 135 172 199 182 217 240 216 234 157 158 247 246 125 157 189 198 218 239 237 243 48 144 219 243 28 41 222 206 213 215 224 242 250 266 283 252 221 219 258 259 214 162 186 219 213 183 164 181 190 194 214 245 263 273 278
328 323 322 304 328 10 263 263 265 264 270 284 292 298 307 306 281 249 249 213 100 171 131 113 152 150 178 207 195 232 259 246 300 102 158 196 186 212 260 244 264 186 168 248 290 99 153 217 226 241 251 251 18 46 55 239 243 89 144 186 176 193 208 225 248 260 242 248 266 241 196 257 269 226 191 195 221 226 185 158 174 176 183 209 275 299 298 296
328 314 350 118 120 36 353 321 288 275 283 295 297 306 309 264 230 237 219 195 120 146 129 151 170 208 228 202 175 181 198 169 79 130 156 176 184 204 286 67 235 234 193 232 264 232 138 142 208 248 260 310 55 65 36 280 193 150 184 194 192 200 209 228 244 264 254 246 258 225 189 255 273 247 221 196 115 8 145 192 179 172 204 316 339 325 318 313
332 104 107 108 101 61 34 10 296 312 312 301 308 305 269 220 234 245 195 165 169 149 155 144 97 278 213 192 155 140 156 129 116 188 181 163 181 189 194 189 204 227 221 219 228 202 181 191 183 203 231 245 200 175 139 168 194 197 213 220 222 218 216 233 228 223 251 253 205 123 177 238 257 253 215 111 82 62 317 264 252 302 324 346 343 335 333 326
322 165 129 116 91 40 16 291 314 342 315 307 314 255 238 225 232 237 153 175 209 155 149 97 64 96 159 134 105 116 150 114 106 216 199 187 192 169 207 248 227 229 233 221 201 205 216 197 143 151 187 211 231 217 165 178 206 219 229 229 236 237 226 239 242 231 247 247 116 120 176 231 251 256 125 121 119 103 53 312 329 338 343 347 342 339 338 332
304 210 200 228 254 269 290 302 329 324 301 313 277 234 241 246 232 208 147 184 158 61 78 52 48 85 198 175 110 96 175 90 89 192 161 232 211 128 91 4 331 267 264 272 252 254 236 163 148 175 168 189 232 233 205 198 202 217 229 231 243 250 244 244 248 250 253 224 116 131 185 239 249 243 89 103 102 94 105 49 360 358 355 349 344 347 350 349
314 252 247 254 257 259 280 308 326 319 312 286 241 224 233 245 227 133 197 161 87 83 108 62 148 138 154 138 89 44 212 98 62 214 184 212 211 159 135 100 12 266 259 258 262 274 264 202 158 187 130 168 225 251 288 284 224 221 235 243 249 255 258 261 261 264 265 236 130 143 188 246 247 121 81 98 114 117 124 101 62 34 20 10 9 9 8 7
314 273 257 260 260 255 269 299 315 321 313 258 240 226 228 240 206 191 205 115 106 169 145 152 221 192 141 116 95 29 337 76 82 231 222 222 215 166 137 93 60 280 252 245 223 245 265 258 98 81 73 189 234 268 295 279 246 219 232 245 252 259 259 268 295 315 304 284 219 187 219 255 206 124 125 135 138 137 129 116 101 75 55 43 37 30 22 20
313 286 261 259 257 248 253 282 303 313 295 256 244 233 234 268 280 202 154 64 198 191 172 188 216 223 190 157 143 120 34 360 140 215 160 102 104 99 104 73 42 313 275 266 226 198 254 247 105 112 133 139 295 298 233 260 266 191 225 244 253 298 272 263 253 97 289 269 258 234 243 247 210 173 155 153 153 147 142 133 114 91 77 67 53 39 31 32
312 289 251 245 247 240 236 258 298 302 270 256 252 253 258 308 314 249 68 5 266 265 242 219 206 240 217 186 170 142 145 209 189 232 199 146 124 96 121 97 40 339 328 305 273 245 280 264 156 171 177 113 84 273 213 242 271 247 239 244 157 249 257 252 259 238 229 255 256 230 238 247 250 218 155 164 170 157 151 139 122 110 96 79 63 48 39 39
318 299 245 234 240 236 227 234 285 279 255 250 244 251 259 204 153 133 76 306 244 221 239 238 206 238 236 221 185 140 171 222 177 238 235 185 160 94 155 136 80 25 356 299 267 87 285 266 188 170 214 144 152 232 220 189 231 266 286 280 227 251 241 227 249 257 251 259 262 242 238 246 256 238 171 182 183 164 154 145 134 120 100 82 67 53 44 43
324 289 235 226 233 232 225 229 256 252 245 249 239 223 221 190 142 129 142 269 236 222 234 241 219 215 229 238 215 150 208 258 243 244 241 209 158 134 204 220 105 69 22 300 289 76 241 263 234 145 144 173 204 228 238 207 189 230 257 231 233 268 270 254 251 260 263 264 269 265 255 250 262 260 213 199 181 164 156 145 133 115 96 80 65 53 47 47
316 268 224 217 228 230 225 227 231 238 238 250 264 221 173 180 157 148 180 293 243 239 251 233 213 220 217 218 243 216 208 255 265 253 238 198 161 146 134 277 292 55 51 267 269 249 221 245 256 200 147 223 242 224 270 285 230 222 237 233 230 240 262 267 255 251 262 265 267 271 266 263 331 10 258 195 164 159 157 144 132 117 101 83 71 60 56 56
297 258 215 206 231 238 232 229 225 240 245 244 261 225 165 182 180 163 160 269 259 272 298 258 229 233 222 213 230 220 214 243 247 249 239 200 201 197 111 56 309 333 272 239 214 232 255 239 255 255 225 241 249 79 15 339 325 287 267 254 253 251 250 258 255 244 246 262 268 269 270 275 50 32 293 161 150 154 152 144 135 123 109 93 82 74 70 69
267 260 242 233 254 247 227 232 214 229 251 250 245 193 122 122 221 184 173 223 239 225 242 249 242 241 233 236 243 227 236 252 239 239 246 215 204 180 84 47 289 268 273 271 223 66 333 269 257 258 257 262 344 78 57 322 306 290 280 273 275 268 255 256 261 262 255 261 273 272 270 276 87 67 312 147 149 150 146 143 138 127 114 104 99 91 85 81
290 295 301 281 265 205 214 235 209 208 233 237 68 140 119 214 224 204 195 220 234 221 218 220 221 238 235 238 249 238 236 247 240 239 249 214 154 85 62 30 251 234 251 267 154 122 180 256 255 252 254 258 234 136 152 186 249 261 254 253 268 272 270 270 277 287 277 263 267 264 260 255 108 101 111 138 143 144 142 141 139 133 124 117 115 107 98 90
306 300 308 315 277 197 217 246 233 225 205 147 180 182 150 141 269 248 227 229 287 249 235 219 198 235 223 204 243 239 226 230 229 225 243 224 148 90 59 30 250 233 254 336 30 141 217 248 249 258 257 245 226 205 194 193 215 246 252 245 267 275 276 275 273 275 264 258 262 261 262 260 126 127 159 156 153 153 149 147 145 142 142 139 130 122 113 105
305 267 278 1 15 175 202 347 301 249 165 159 198 182 167 169 74 11 310 360 20 310 273 230 132 244 219 197 227 229 218 237 240 210 209 204 146 114 79 43 302 231 63 27 7 200 251 264 245 257 259 248 245 242 239 244 231 229 238 235 251 261 260 264 264 257 250 256 258 255 265 269 145 146 175 175 172 173 161 158 161 158 157 157 151 145 134 120
312 288 71 23 37 69 80 51 8 285 147 176 195 167 216 201 122 64 317 122 69 343 297 335 193 235 217 208 224 222 209 220 236 225 212 199 160 132 115 91 55 71 76 45 13 218 251 265 250 254 260 264 272 280 330 342 289 264 256 243 231 231 243 255 260 257 261 265 257 249 262 268 215 177 190 186 186 190 175 170 176 173 169 166 161 157 150 139
331 356 3 356 37 64 84 62 28 18 53 296 237 138 244 222 162 128 159 76 58 84 264 268 223 234 224 215 225 227 211 207 218 224 220 208 166 129 136 182 116 75 106 116 294 240 250 254 248 252 257 264 275 283 301 307 279 273 273 263 249 233 232 241 250 261 275 272 260 260 266 263 249 229 218 203 191 189 186 189 191 183 175 171 165 161 156 150
33 51 25 8 360 30 54 36 16 22 58 357 299 76 267 227 212 145 106 74 76 191 267 220 195 231 238 228 232 222 210 210 211 210 202 198 186 160 163 184 164 125 203 200 187 259 260 259 254 255 259 263 268 271 272 268 263 265 266 264 261 254 247 246 248 256 264 261 261 280 281 262 252 255 246 226 212 210 209 209 204 188 179 176 172 171 167 158
32 52 41 28 30 28 20 4 344 351 47 23 22 58 352 260 108 66 40 354 187 130 301 235 185 150 180 228 249 231 212 220 209 196 192 185 194 203 204 193 176 183 208 204 129 345 273 270 267 265 267 268 267 264 259 255 257 259 257 256 257 257 255 254 253 254 257 259 264 279 281 266 260 273 273 248 206 224 219 195 193 192 186 182 182 181 172 159
34 27 6 344 39 47 21 1 325 272 74 19 27 74 50 42 67 73 47 9 347 68 343 259 156 79 62 158 244 176 60 15 11 99 62 215 193 218 242 244 198 189 203 230 166 151 248 275 307 277 271 269 267 263 256 251 256 259 256 255 256 257 254 253 255 254 253 260 264 265 267 265 260 263 263 254 114 186 200 191 197 196 189 187 188 183 171 157
43 33 2 316 2 23 360 11 352 284 98 56 27 49 57 49 48 67 72 42 25 35 17 348 44 78 144 105 77 61 40 8 353 13 347 293 291 303 273 305 300 229 226 254 243 187 236 262 267 262 266 268 265 260 257 261 267 263 257 253 251 251 251 251 252 246 241 250 257 256 259 264 261 253 250 249 246 241 237 227 211 194 189 193 191 182 171 157
37 31 18 328 314 16 353 7 4 295 61 47 23 28 35 40 50 61 121 73 51 38 25 4 353 282 208 116 64 26 1 337 322 323 310 293 299 296 277 281 287 275 270 271 258 240 253 264 266 261 266 272 271 268 273 281 276 267 258 245 240 244 250 252 252 249 244 244 251 255 261 281 310 275 252 256 259 257 255 244 219 195 189 191 187 176 166 153